Wind_Speed
3 3 4 3 4 4 4 5 6 7 9 10 11 11 12 14 14 14 12 12 10 10 9 10 9 8 8 10 9 9 8 9 7 6 8 9 11 11 12 12 15 16 16 17 16 17 17
5 4 4 5 5 5 5 5 5 7 8 9 10 10 12 14 16 16 15 13 11 10 9 9 8 8 8 8 10 7 4 4 3 4 5 8 11 13 11 13 10 16 15 15 15 16 15
7 6 6 6 6 6 6 7 7 7 8 8 9 12 13 15 16 17 17 15 13 10 12 8 7 8 6 8 8 4 4 4 3 3 4 6 9 12 11 11 14 10 11 12 12 11 10
8 7 8 8 8 7 7 8 9 9 8 9 9 11 13 15 16 17 17 16 14 13 11 6 8 5 6 6 5 5 4 4 4 4 5 6 9 10 10 8 9 7 6 4 8 9 8
9 8 8 9 9 9 10 9 10 10 10 10 10 12 14 15 16 18 19 17 15 13 10 9 8 5 5 5 5 6 6 5 5 5 5 6 7 8 9 6 5 9 4 8 9 9 10
10 9 9 9 9 10 10 11 10 11 12 11 12 12 14 15 15 17 19 19 17 16 10 10 7 4 5 6 7 7 6 6 5 5 5 5 6 6 9 7 5 6 7 8 5 10 8
11 10 10 10 9 9 10 11 12 11 13 13 13 13 14 13 15 19 19 18 17 14 12 10 11 12 10 8 8 7 7 6 6 6 6 7 5 9 12 11 11 12 10 6 10 14 13
12 12 11 11 11 11 12 13 13 14 14 15 15 15 15 14 16 18 19 19 16 14 15 18 12 11 11 11 9 8 8 7 8 8 7 7 10 11 10 10 10 10 9 8 13 12 12
17 16 15 14 14 15 15 16 16 16 16 16 15 17 17 17 17 17 18 20 18 17 16 17 15 13 11 12 11 9 9 9 9 10 11 9 10 13 12 12 11 10 9 9 9 14 14
19 19 20 17 15 14 15 16 16 16 17 19 18 18 19 18 19 19 19 18 18 17 11 11 11 12 14 13 12 12 11 10 11 12 13 12 14 15 13 12 8 4 10 9 10 7 4
20 21 18 18 15 18 18 17 19 19 18 18 20 21 21 20 19 18 20 18 15 13 5 6 10 9 11 15 6 11 12 13 14 13 12 11 12 15 12 13 9 10 9 10 11 10 12
19 23 21 21 20 20 20 22 20 19 18 20 23 21 22 20 22 21 19 17 13 5 7 6 5 7 11 14 14 13 14 15 14 16 17 19 16 17 17 13 11 8 7 9 4 5 7
27 25 25 24 24 21 24 22 20 17 20 22 25 18 19 21 20 18 18 16 7 8 6 7 9 9 11 15 17 17 16 17 14 9 14 15 16 20 17 13 11 8 2 4 5 6 3
33 31 30 24 26 19 18 22 19 18 19 19 18 18 21 21 19 20 18 13 6 10 13 13 12 13 14 16 20 20 20 21 23 20 9 10 8 16 16 17 7 10 8 6 6 3 2
33 32 29 28 27 26 25 25 19 21 17 18 19 19 17 22 17 18 19 13 8 13 14 12 12 15 18 18 18 14 19 20 23 25 14 9 9 15 17 18 14 7 10 15 7 10 6
34 31 27 27 23 25 25 19 18 20 17 20 21 20 16 16 17 22 19 22 20 18 18 17 18 13 12 18 13 11 13 12 19 25 24 14 7 14 19 19 20 19 15 6 8 4 6
30 29 32 34 30 29 27 25 21 20 20 23 19 21 21 21 20 22 21 22 23 23 24 22 21 22 23 22 17 18 13 16 17 17 24 24 16 8 16 17 17 23 22 15 12 8 4
28 29 31 30 29 30 31 31 22 25 24 26 16 21 17 19 20 20 23 26 28 28 26 26 26 26 29 23 19 20 22 21 11 16 20 24 12 11 16 23 21 25 19 23 11 8 10
24 26 29 30 37 30 29 24 25 26 20 19 18 18 21 23 25 25 27 28 29 30 30 33 27 27 26 27 15 20 26 26 25 21 14 18 13 5 5 15 25 28 32 30 30 22 17
21 23 26 27 28 31 31 30 29 25 18 19 20 22 21 25 27 27 26 24 28 28 28 30 33 29 27 27 25 19 21 17 18 22 25 22 23 20 14 13 10 14 22 27 35 15 25
15 17 22 25 25 27 26 32 21 25 20 19 26 26 21 24 24 22 28 26 29 31 29 28 31 31 28 23 25 34 34 30 28 29 30 32 28 28 33 36 33 31 26 25 35 41 27
11 13 15 20 24 25 28 33 22 27 21 24 27 25 29 32 27 28 30 32 29 31 32 33 33 31 33 31 30 24 18 22 29 27 29 33 24 26 31 31 33 38 34 36 41 42 47
7 7 9 14 20 27 33 34 34 26 23 25 27 27 27 33 28 27 30 30 30 28 31 31 30 32 34 29 29 29 30 27 28 24 25 31 28 23 15 19 25 26 32 34 42 44 43
8 7 7 10 14 21 27 33 34 38 29 29 30 33 38 38 31 27 28 31 33 31 33 35 32 31 30 28 27 27 27 29 31 30 27 26 25 24 16 16 9 19 17 21 29 29 34
11 10 9 10 10 12 17 25 34 41 42 35 35 39 37 38 31 27 31 34 37 37 34 33 32 33 33 28 23 17 20 25 30 31 30 29 28 16 9 18 29 33 29 28 26 27 26
14 13 12 12 12 12 14 17 21 27 32 36 32 23 19 29 36 35 36 36 37 36 34 35 33 31 29 25 20 11 11 9 8 8 33 33 29 25 15 7 8 11 14 19 22 24 28
14 15 15 15 16 16 16 17 18 22 25 30 35 39 41 42 42 38 38 35 35 35 37 33 28 28 26 26 23 17 12 15 12 13 14 22 25 31 29 15 19 25 25 24 12 21 21
15 15 17 17 18 19 19 19 18 20 25 32 28 29 33 35 37 37 37 37 37 35 34 30 22 25 26 25 17 14 14 15 22 26 23 21 15 16 18 12 15 21 22 18 21 24 30
18 19 19 20 22 23 23 20 19 22 21 24 29 34 30 29 33 32 34 35 34 34 32 28 29 23 12 11 15 11 14 12 18 12 19 19 26 22 21 17 24 26 28 33 28 28 31
Wind_Direction
279 311 324 334 340 349 358 3 4 4 4 2 5 8 6 2 2 2 1 2 2 356 346 326 310 296 282 276 270 273 275 270 257 240 221 208 207 206 203 216 213 225 220 226 232 235 246
273 271 289 305 315 329 332 336 343 346 351 356 1 7 3 359 359 359 359 0 2 358 351 333 316 303 284 263 277 279 252 236 214 199 199 207 211 212 206 193 203 230 226 232 240 250 254
284 283 282 289 297 305 312 317 320 325 333 344 348 349 353 352 354 354 354 354 353 354 342 339 327 311 290 271 267 245 205 176 180 201 199 202 207 204 221 223 227 233 231 239 244 250 262
269 279 284 286 290 294 295 301 306 311 317 326 334 341 344 346 345 349 348 349 347 345 344 335 333 302 286 273 261 213 218 243 226 223 224 215 207 208 211 217 202 189 219 207 262 263 269
262 268 276 283 287 291 293 294 298 301 305 314 325 334 336 338 340 345 344 342 338 338 334 324 322 297 276 260 241 233 251 245 250 233 216 213 215 208 204 181 179 210 236 208 270 266 287
261 267 272 277 287 290 293 294 294 297 300 305 314 328 332 332 337 342 339 335 330 326 318 317 304 275 268 266 231 237 248 248 241 236 224 215 209 204 199 193 234 214 206 222 217 267 273
260 264 270 281 286 292 295 296 293 293 294 299 304 313 321 325 332 334 331 329 323 318 312 301 282 264 267 248 232 236 238 238 241 234 232 219 180 191 214 215 223 229 223 202 246 262 263
264 263 267 273 278 287 294 295 295 294 292 296 302 305 310 313 328 331 330 326 321 312 308 302 281 263 236 236 237 234 239 234 232 240 235 222 223 221 216 218 220 228 235 243 259 261 271
260 262 267 271 272 280 290 291 293 295 294 294 300 302 305 306 319 322 330 328 322 317 309 290 266 246 238 233 232 231 236 241 246 237 219 205 237 214 217 219 220 225 220 238 250 281 292
258 263 270 266 274 274 284 292 297 301 298 294 296 299 302 303 314 321 327 324 319 317 301 281 246 235 232 226 236 233 230 240 233 234 230 245 238 219 222 231 229 239 245 263 275 295 281
256 264 261 267 263 270 274 282 283 290 292 295 298 292 299 297 309 315 319 321 315 315 296 271 237 240 226 209 224 227 234 236 239 239 224 247 236 225 231 238 227 226 253 275 280 267 283
259 256 262 270 268 272 278 282 285 285 284 288 285 292 297 301 299 309 317 317 309 296 248 257 247 235 221 223 242 245 243 240 246 233 235 246 244 227 229 232 233 255 275 297 283 242 252
256 270 262 259 268 274 277 278 283 287 290 286 286 286 300 296 305 305 316 310 304 234 264 260 254 240 236 237 245 248 250 243 223 213 230 241 238 240 232 228 236 236 236 238 223 207 273
260 264 268 262 266 263 266 272 281 282 290 291 279 282 288 300 299 298 312 296 235 259 257 280 282 276 255 259 257 253 247 242 235 230 203 223 242 237 231 214 214 212 217 266 277 267 25
260 260 261 261 266 264 266 268 273 278 289 296 297 283 284 287 296 298 301 265 240 270 272 279 282 279 270 264 248 255 247 243 246 231 215 216 222 231 229 222 211 224 211 232 265 288 274
257 252 255 258 262 261 262 272 268 279 279 285 292 283 285 283 279 297 288 268 256 263 264 273 280 268 255 266 244 240 251 257 251 240 230 232 232 239 232 227 228 223 220 220 212 258 254
250 250 242 247 262 259 261 270 271 268 279 280 288 288 287 281 284 281 267 269 285 278 269 262 259 262 260 261 254 247 242 259 256 244 226 228 230 238 235 231 228 226 222 219 220 224 258
251 249 243 242 246 252 254 259 266 280 276 280 280 276 280 285 284 277 275 279 285 285 277 271 271 268 263 256 262 253 250 247 258 241 229 224 232 231 247 248 239 222 222 226 219 206 225
254 248 245 238 239 246 249 263 270 261 278 272 274 285 277 278 272 277 284 285 281 283 277 273 269 270 269 257 255 250 251 258 254 243 230 225 228 222 266 258 241 233 235 232 230 243 234
259 253 248 244 243 238 245 257 259 260 255 260 269 280 278 289 282 272 284 289 280 281 280 275 274 271 266 258 251 257 259 259 250 245 243 233 229 222 252 264 247 230 243 243 237 232 249
264 258 251 245 242 239 236 249 258 265 261 273 265 269 276 282 289 281 278 279 287 284 283 278 273 273 265 257 257 251 257 260 261 258 246 231 241 243 250 259 266 267 259 249 240 255 240
266 262 254 251 242 232 233 244 247 258 256 254 265 272 284 282 281 280 280 281 290 292 283 280 275 274 268 262 256 258 253 258 261 251 243 238 244 255 263 265 267 266 258 257 258 258 258
273 278 272 260 254 242 241 236 247 249 256 263 267 270 282 280 280 274 278 285 292 292 290 283 281 273 269 265 261 260 259 258 262 258 250 242 243 253 261 272 275 273 271 265 264 267 271
271 285 302 293 274 263 255 250 239 245 257 262 277 279 280 279 277 283 283 282 284 289 284 283 277 271 272 266 263 262 260 261 257 252 247 243 241 243 268 282 261 275 267 260 260 267 273
280 284 299 314 313 297 275 260 251 248 259 266 265 273 269 272 279 282 290 288 287 287 278 275 274 273 266 262 259 259 257 258 252 250 244 242 238 238 246 241 270 281 280 281 278 276 277
274 281 291 306 308 309 299 283 264 252 248 253 257 271 268 279 284 292 290 289 281 278 275 272 272 269 265 257 241 224 221 222 237 234 231 230 232 231 243 246 268 276 283 288 286 283 283
278 283 289 296 305 311 304 290 273 258 262 264 255 264 266 278 280 285 287 282 277 276 272 274 271 259 252 244 228 226 233 225 239 230 223 212 227 229 235 251 265 273 274 279 271 282 286
272 280 287 292 298 303 302 302 276 265 261 272 265 267 269 272 280 281 282 282 280 274 270 274 267 250 240 229 228 233 235 236 242 247 251 243 234 224 221 235 264 272 273 263 276 293 294
274 280 284 289 295 300 300 299 281 270 264 276 266 270 277 283 285 285 284 281 278 274 271 268 257 252 226 222 231 224 235 239 231 246 242 252 241 249 235 250 271 280 286 283 278 292 287
Height
3137 3137 3137 3136 3136 3135 3134 3133 3133 3132 3131 3129 3128 3126 3124 3122 3120 3117 3114 3111 3109 3108 3107 3107 3105 3104 3103 3103 3103 3103 3102 3102 3102 3102 3103 3105 3107 3109 3111 3111 3111 3111 3113 3114 3115 3116 3117
3137 3136 3135 3136 3135 3135 3134 3133 3132 3131 3130 3129 3127 3126 3124 3122 3120 3118 3115 3112 3109 3107 3106 3105 3104 3103 3102 3102 3101 3101 3101 3100 3100 3101 3102 3104 3105 3107 3109 3110 3111 3108 3111 3112 3113 3114 3115
3137 3136 3135 3134 3134 3134 3134 3133 3132 3131 3130 3129 3127 3126 3124 3122 3119 3117 3115 3112 3109 3107 3105 3103 3103 3103 3102 3102 3099 3100 3100 3100 3100 3101 3101 3103 3104 3106 3106 3107 3107 3108 3110 3110 3110 3111 3111
3134 3134 3134 3133 3133 3133 3132 3132 3132 3131 3129 3128 3127 3125 3124 3121 3119 3116 3114 3111 3109 3107 3105 3103 3103 3102 3102 3100 3100 3100 3100 3100 3100 3100 3101 3102 3103 3104 3105 3106 3107 3109 3110 3110 3108 3108 3109
3132 3131 3132 3132 3132 3132 3132 3131 3131 3130 3128 3127 3126 3125 3123 3121 3118 3116 3113 3110 3108 3106 3104 3103 3102 3101 3101 3101 3100 3101 3100 3099 3099 3099 3099 3101 3102 3103 3104 3105 3108 3107 3109 3109 3107 3106 3106
3130 3130 3130 3130 3130 3129 3129 3129 3129 3128 3127 3126 3125 3124 3122 3120 3118 3115 3113 3110 3107 3105 3103 3102 3101 3103 3102 3100 3099 3099 3099 3099 3098 3099 3100 3100 3101 3102 3103 3105 3106 3106 3107 3106 3107 3104 3103
3128 3128 3128 3128 3128 3128 3127 3127 3126 3126 3126 3124 3123 3122 3121 3119 3117 3115 3112 3109 3108 3106 3102 3100 3100 3098 3098 3099 3098 3098 3098 3098 3098 3098 3099 3099 3102 3102 3099 3100 3102 3102 3103 3104 3102 3102 3102
3126 3126 3126 3125 3125 3125 3125 3125 3124 3123 3123 3122 3121 3120 3118 3117 3115 3113 3111 3108 3105 3104 3100 3096 3095 3095 3095 3096 3096 3096 3098 3098 3097 3097 3098 3100 3098 3098 3098 3098 3099 3100 3101 3102 3100 3099 3099
3122 3123 3123 3122 3122 3122 3122 3122 3122 3121 3120 3120 3118 3117 3116 3115 3113 3112 3109 3107 3104 3100 3097 3093 3091 3092 3094 3095 3094 3094 3096 3095 3095 3096 3096 3098 3096 3096 3097 3097 3097 3097 3097 3097 3098 3095 3094
3118 3119 3119 3119 3119 3119 3119 3119 3119 3118 3117 3117 3116 3114 3113 3112 3113 3109 3107 3105 3102 3099 3095 3091 3088 3088 3089 3091 3092 3091 3092 3095 3093 3093 3094 3095 3093 3094 3095 3094 3095 3095 3093 3093 3093 3093 3094
3114 3115 3115 3115 3114 3115 3115 3115 3115 3114 3113 3113 3112 3111 3109 3108 3108 3106 3106 3103 3101 3099 3097 3090 3086 3086 3087 3090 3090 3089 3090 3089 3090 3091 3094 3091 3090 3091 3091 3091 3092 3092 3091 3090 3089 3089 3089
3108 3109 3110 3111 3111 3111 3112 3111 3110 3110 3109 3109 3108 3107 3105 3104 3104 3103 3102 3100 3100 3101 3091 3086 3085 3084 3086 3087 3087 3086 3087 3088 3088 3087 3087 3086 3087 3088 3087 3088 3089 3088 3089 3087 3086 3089 3085
3103 3104 3105 3105 3106 3106 3107 3107 3106 3105 3104 3103 3103 3102 3102 3101 3100 3099 3098 3098 3101 3095 3089 3084 3082 3082 3082 3084 3083 3083 3084 3084 3085 3085 3083 3083 3082 3082 3084 3085 3086 3087 3088 3087 3085 3084 3072
3097 3098 3099 3100 3101 3101 3102 3102 3101 3101 3100 3099 3098 3098 3097 3096 3096 3095 3095 3097 3096 3089 3086 3083 3083 3081 3080 3080 3079 3078 3078 3078 3078 3079 3081 3080 3080 3076 3079 3081 3083 3084 3087 3086 3075 3064 3065
3090 3091 3092 3093 3096 3096 3096 3097 3097 3096 3096 3095 3094 3093 3092 3091 3091 3091 3091 3090 3088 3086 3085 3083 3081 3079 3077 3075 3076 3075 3073 3073 3071 3074 3077 3075 3076 3071 3072 3074 3080 3080 3080 3080 3079 3073 3070
3081 3083 3086 3088 3089 3090 3091 3091 3092 3091 3091 3091 3090 3088 3087 3087 3086 3085 3085 3082 3080 3080 3080 3080 3081 3079 3075 3072 3073 3071 3069 3067 3066 3068 3069 3068 3071 3068 3068 3071 3072 3073 3074 3077 3077 3072 3060
3073 3075 3078 3081 3083 3085 3086 3086 3087 3087 3087 3085 3084 3083 3082 3082 3082 3080 3076 3075 3075 3073 3075 3075 3073 3072 3071 3068 3067 3066 3064 3061 3060 3062 3064 3065 3068 3066 3064 3063 3064 3065 3066 3068 3070 3066 3057
3067 3068 3069 3073 3075 3078 3080 3081 3081 3081 3081 3080 3079 3077 3077 3077 3078 3074 3072 3070 3069 3067 3067 3067 3066 3065 3064 3063 3062 3061 3059 3057 3056 3058 3059 3060 3060 3060 3058 3056 3058 3055 3058 3060 3062 3056 3052
3059 3061 3062 3064 3067 3070 3073 3074 3076 3076 3075 3074 3072 3073 3072 3071 3069 3067 3066 3066 3064 3062 3060 3057 3057 3056 3056 3058 3059 3052 3050 3050 3051 3053 3052 3055 3054 3056 3051 3052 3049 3047 3048 3050 3051 3048 3042
3054 3054 3055 3056 3059 3062 3066 3070 3069 3069 3069 3069 3067 3066 3067 3064 3063 3062 3060 3058 3058 3055 3053 3051 3048 3048 3048 3050 3051 3046 3045 3045 3045 3046 3048 3048 3045 3044 3040 3039 3040 3039 3039 3040 3042 3041 3029
3048 3048 3049 3051 3052 3055 3060 3062 3063 3064 3063 3063 3061 3059 3060 3058 3058 3058 3055 3052 3053 3051 3049 3046 3040 3040 3042 3041 3042 3041 3039 3040 3040 3040 3041 3041 3036 3037 3036 3034 3033 3031 3031 3032 3028 3025 3022
3045 3043 3044 3045 3047 3049 3053 3055 3056 3058 3058 3056 3055 3054 3053 3052 3051 3051 3048 3046 3046 3045 3043 3038 3036 3036 3033 3033 3034 3033 3034 3034 3034 3032 3034 3033 3029 3030 3027 3027 3026 3019 3020 3021 3017 3015 3010
3042 3040 3039 3040 3041 3043 3045 3047 3049 3052 3052 3048 3048 3048 3047 3044 3044 3043 3041 3041 3038 3039 3035 3032 3030 3029 3026 3027 3025 3027 3026 3026 3027 3027 3026 3027 3026 3026 3020 3021 3018 3007 3006 3006 3003 3003 3001
3040 3039 3037 3037 3036 3036 3038 3040 3042 3044 3042 3042 3040 3042 3041 3035 3037 3036 3034 3035 3032 3030 3028 3025 3022 3020 3021 3020 3018 3018 3019 3019 3019 3018 3019 3018 3020 3020 3016 3019 3010 2996 2996 2997 2994 2995 2993
3037 3037 3034 3034 3033 3031 3031 3032 3034 3036 3036 3036 3033 3036 3035 3028 3029 3028 3028 3026 3025 3022 3019 3015 3015 3015 3012 3013 3013 3012 3012 3013 3009 3009 3010 3011 3013 3014 3013 3010 2993 2992 2991 2990 2988 2988 2988
3034 3032 3031 3030 3029 3027 3027 3026 3027 3027 3027 3027 3027 3029 3025 3025 3019 3020 3018 3017 3015 3014 3011 3008 3006 3005 3006 3005 3005 3005 3005 3003 3001 2998 2998 3001 3004 3009 3007 3006 2992 2984 2985 2984 2983 2979 2978
3027 3027 3027 3026 3025 3022 3022 3021 3020 3020 3020 3020 3019 3022 3019 3018 3013 3012 3010 3009 3008 3005 3002 3000 2999 2998 2999 2997 2995 2997 2997 2996 2995 2991 2992 2994 2997 2997 2999 2996 2983 2980 2979 2978 2981 2977 2972
3022 3022 3022 3021 3021 3019 3017 3014 3013 3013 3013 3014 3013 3013 3013 3010 3006 3004 3001 2999 2998 2996 2996 2994 2996 2990 2990 2991 2989 2989 2988 2988 2986 2985 2986 2988 2989 2988 2990 2990 2980 2973 2973 2975 2971 2967 2967
3015 3016 3016 3016 3014 3012 3011 3008 3007 3006 3006 3007 3005 3005 3004 3002 2999 2996 2993 2991 2990 2988 2989 2987 2988 2985 2985 2984 2983 2982 2982 2980 2979 2979 2979 2980 2980 2979 2981 2972 2969 2968 2967 2965 2964 2962 2960